Preview of NWS' New Version of Forecast
This preview is not operational and should not be used for support decisions.

Regional Weather Roundup (RWR)

Issued by National Weather Service (NWS)

                            
000
ASCA42 TJSJ 170710
RWRPR 
PUERTO RICO/U.S. VIRGIN ISLANDS HOURLY WEATHER ROUNDUP
NATIONAL WEATHER SERVICE SAN JUAN PR
300 AM AST TUE SEP 17 2019

PRZ001>002-007>008-010-170800-
PUERTO RICO
  
CITY           SKY/WX    TMP DP  RH WIND       PRES   REMARKS
SAN JUAN LMM   PTCLDY    82  75  78 CALM      29.90F                  
CEIBA          PTCLDY    81  79  94 CALM      29.91F                  
$$

VIZ001>002-170800-
U.S. VIRGIN ISLANDS
  
CITY           SKY/WX    TMP DP  RH WIND       PRES   REMARKS
CHARLOTTE AMA  CLEAR     81  77  89 E6        29.89S                  
CHRISTIANSTED  PTCLDY    81  75  83 E9        29.89F                  
$$

HOURLY WEATHER ROUNDUP FOR THE NEWS MEDIA
  
CITY           SKY/WX    TMP DP  RH WIND       PRES   REMARKS
ORLANDO        FAIR      77  71  82 NW5       29.91F                  
NEW YORK       MOCLDY    64  55  72 NE6       30.09R                  
NEWARK         MOCLDY    68  51  54 NE8       30.08R                  
CHICAGO        CLOUDY    66  63  90 E6        30.15R                  
HARTFORD       FAIR      49  46  90 CALM      30.06S                  
BOSTON         FAIR      60  45  57 NW9       30.07S                  
DALLAS         CLEAR     82  66  58 S6        29.96S                  
PHILADELPHIA   MOCLDY    69  63  81 NE7       30.05S                  
LOS ANGELES    PTCLDY    69  62  78 SE7       29.90S                  
WASHINGTON DC  MOCLDY    73  63  70 N9        30.02S